timestamp,wind_dir_avg,wind_spd_avg,wind_spd_max_dir,wind_spd_gust,battery_voltage,lat,long
2021-05-09 00:04:00+00:00,108.0,3.88,106.0,6.23,12.65,47.59359,-54.27349
2021-05-09 00:14:01+00:00,99.0,3.95,110.0,6.32,12.57,47.59359,-54.27349
2021-05-09 00:24:01+00:00,73.0,6.27,57.0,7.6,12.57,47.59359,-54.27349
2021-05-09 00:34:01+00:00,68.0,8.52,68.0,8.95,12.57,47.59359,-54.27349
2021-05-09 00:44:01+00:00,69.0,7.02,71.0,7.77,12.57,47.59359,-54.27349
2021-05-09 00:54:01+00:00,67.0,7.23,65.0,8.12,12.57,47.59359,-54.27349
2021-05-09 01:04:01+00:00,57.0,4.07,67.0,5.0,12.57,47.59359,-54.27349
2021-05-09 01:14:01+00:00,66.0,9.04,66.0,9.8,12.57,47.59359,-54.27349
2021-05-09 01:24:01+00:00,65.0,6.93,64.0,7.56,12.57,47.59359,-54.27349
2021-05-09 01:34:01+00:00,54.0,6.91,53.0,7.42,12.57,47.59359,-54.27349
2021-05-09 01:44:01+00:00,64.0,9.02,62.0,10.64,12.57,47.59359,-54.27349
2021-05-09 01:54:01+00:00,57.0,7.75,55.0,8.88,12.57,47.59359,-54.27349
2021-05-09 02:04:01+00:00,62.0,8.45,59.0,9.32,12.57,47.59359,-54.27349
2021-05-09 02:14:01+00:00,55.0,8.03,54.0,8.77,12.49,47.59359,-54.27349
2021-05-09 02:24:01+00:00,62.0,6.96,63.0,7.91,12.49,47.59359,-54.27349
2021-05-09 02:34:01+00:00,59.0,7.84,60.0,8.73,12.49,47.59359,-54.27349
2021-05-09 02:44:01+00:00,60.0,7.51,54.0,8.45,12.49,47.59359,-54.27349
2021-05-09 02:54:01+00:00,54.0,7.1,51.0,8.11,12.49,47.59359,-54.27349
2021-05-09 03:04:01+00:00,54.0,7.91,51.0,8.63,12.49,47.59359,-54.27349
2021-05-09 03:14:01+00:00,55.0,7.29,55.0,8.14,12.49,47.59359,-54.27349
2021-05-09 03:24:01+00:00,61.0,7.68,55.0,8.73,12.49,47.59359,-54.27349
2021-05-09 03:34:01+00:00,62.0,8.25,61.0,9.34,12.49,47.59359,-54.27349
2021-05-09 03:44:01+00:00,69.0,11.27,73.0,14.57,12.49,47.59359,-54.27349
2021-05-09 03:54:01+00:00,69.0,8.31,73.0,10.1,12.49,47.59359,-54.27349
2021-05-09 04:04:01+00:00,70.0,7.78,66.0,8.68,12.49,47.59359,-54.27349
2021-05-09 04:14:01+00:00,70.0,7.71,70.0,8.25,12.49,47.59359,-54.27349
2021-05-09 04:24:01+00:00,71.0,6.8,68.0,8.3,12.49,47.59359,-54.27349
2021-05-09 04:34:01+00:00,73.0,4.49,60.0,5.94,12.49,47.59359,-54.27349
2021-05-09 04:44:01+00:00,68.0,4.65,64.0,5.18,12.49,47.59359,-54.27349
2021-05-09 04:54:01+00:00,73.0,4.41,60.0,6.04,12.49,47.59359,-54.27349
2021-05-09 05:04:01+00:00,76.0,4.22,63.0,5.25,12.49,47.59359,-54.27349
2021-05-09 05:14:01+00:00,78.0,3.9,91.0,5.63,12.41,47.59359,-54.27349
2021-05-09 05:24:01+00:00,78.0,4.1,70.0,5.71,12.41,47.59359,-54.27349
2021-05-09 05:34:01+00:00,81.0,3.8,62.0,5.28,12.41,47.59359,-54.27349
2021-05-09 05:44:01+00:00,97.0,3.82,105.0,5.72,12.41,47.59359,-54.27349
2021-05-09 05:54:01+00:00,86.0,2.9,82.0,4.3,12.41,47.59359,-54.27349
2021-05-09 06:04:01+00:00,98.0,3.66,92.0,5.91,12.41,47.59359,-54.27349
2021-05-09 06:14:00+00:00,104.0,4.45,100.0,6.74,12.41,47.59359,-54.27349
2021-05-09 06:24:00+00:00,96.0,3.4,119.0,4.56,12.41,47.59359,-54.27349
2021-05-09 06:34:00+00:00,94.0,2.22,100.0,3.17,12.41,47.59359,-54.27349
2021-05-09 06:44:00+00:00,104.0,3.06,90.0,4.78,12.41,47.59359,-54.27349
2021-05-09 06:54:00+00:00,106.0,5.14,103.0,5.97,12.41,47.59359,-54.27349
2021-05-09 07:04:00+00:00,106.0,5.95,105.0,6.62,12.41,47.59359,-54.27349
2021-05-09 07:14:00+00:00,137.0,3.1,141.0,4.04,12.41,47.59359,-54.27349
2021-05-09 07:24:00+00:00,146.0,5.29,152.0,7.02,12.41,47.59359,-54.27349
2021-05-09 07:34:00+00:00,133.0,3.2,132.0,3.55,12.41,47.59359,-54.27349
2021-05-09 07:44:00+00:00,152.0,4.31,153.0,4.81,12.41,47.59359,-54.27349
2021-05-09 07:54:00+00:00,158.0,5.49,156.0,5.93,12.41,47.59359,-54.27349
2021-05-09 08:04:00+00:00,158.0,7.87,156.0,8.75,12.41,47.59359,-54.27349
2021-05-09 08:14:01+00:00,155.0,7.68,155.0,8.69,12.33,47.59359,-54.27349
2021-05-09 08:24:01+00:00,162.0,8.25,163.0,9.67,12.33,47.59359,-54.27349
2021-05-09 08:34:01+00:00,160.0,7.25,159.0,7.96,12.33,47.59359,-54.27349
2021-05-09 08:44:01+00:00,164.0,6.64,164.0,7.27,12.33,47.59359,-54.27349
2021-05-09 08:54:01+00:00,176.0,6.29,177.0,6.87,12.33,47.59359,-54.27349
2021-05-09 09:04:01+00:00,190.0,6.5,191.0,7.11,12.33,47.59359,-54.27349
2021-05-09 09:14:00+00:00,190.0,5.56,192.0,6.52,12.41,47.59359,-54.27349
2021-05-09 09:24:00+00:00,194.0,5.18,194.0,5.68,12.41,47.59359,-54.27349
2021-05-09 09:34:00+00:00,194.0,5.11,193.0,5.72,12.41,47.59359,-54.27349
2021-05-09 09:44:00+00:00,190.0,6.19,190.0,6.92,12.41,47.59359,-54.27349
2021-05-09 09:54:00+00:00,187.0,7.08,191.0,7.69,12.41,47.59359,-54.27349
2021-05-09 10:04:00+00:00,181.0,5.35,186.0,5.67,12.41,47.59359,-54.27349
2021-05-09 10:14:01+00:00,169.0,6.47,169.0,6.98,13.21,47.59359,-54.27349
2021-05-09 10:24:01+00:00,170.0,6.42,170.0,6.77,13.21,47.59359,-54.27349
2021-05-09 10:34:01+00:00,170.0,6.04,171.0,6.57,13.21,47.59359,-54.27349
2021-05-09 10:44:01+00:00,171.0,6.27,171.0,6.57,13.21,47.59359,-54.27349
2021-05-09 10:54:01+00:00,179.0,5.59,178.0,6.2,13.21,47.59359,-54.27349
2021-05-09 11:04:01+00:00,182.0,5.99,185.0,6.52,13.21,47.59359,-54.27349
2021-05-09 11:14:01+00:00,178.0,4.74,181.0,5.32,13.37,47.59359,-54.27349
2021-05-09 11:24:01+00:00,164.0,7.43,164.0,8.1,13.37,47.59359,-54.27349
2021-05-09 11:34:01+00:00,155.0,9.75,153.0,10.61,13.37,47.59359,-54.27349
2021-05-09 11:44:01+00:00,160.0,7.66,161.0,8.93,13.37,47.59359,-54.27349
2021-05-09 11:54:01+00:00,171.0,6.49,170.0,7.18,13.37,47.59359,-54.27349
2021-05-09 12:04:01+00:00,178.0,8.1,179.0,9.95,13.37,47.59359,-54.27349
2021-05-09 12:14:01+00:00,178.0,9.42,178.0,11.06,13.68,47.59359,-54.27349
2021-05-09 12:24:01+00:00,182.0,8.64,186.0,9.72,13.68,47.59359,-54.27349
2021-05-09 12:34:01+00:00,185.0,9.26,187.0,10.02,13.68,47.59359,-54.27349
2021-05-09 12:44:01+00:00,180.0,7.54,181.0,9.45,13.68,47.59359,-54.27349
2021-05-09 12:54:01+00:00,182.0,10.87,179.0,12.02,13.68,47.59359,-54.27349
2021-05-09 13:04:01+00:00,189.0,8.63,190.0,9.55,13.68,47.59359,-54.27349
2021-05-09 13:14:01+00:00,193.0,12.13,200.0,14.24,13.84,47.59359,-54.27349
2021-05-09 13:24:01+00:00,198.0,13.96,199.0,16.17,13.84,47.59359,-54.27349
2021-05-09 13:34:01+00:00,193.0,11.81,197.0,14.15,13.84,47.59359,-54.27349
2021-05-09 13:44:01+00:00,196.0,12.28,199.0,15.03,13.84,47.59359,-54.27349
2021-05-09 13:54:01+00:00,197.0,12.13,209.0,15.08,13.84,47.59359,-54.27349
2021-05-09 14:04:01+00:00,206.0,11.85,204.0,13.85,13.84,47.59359,-54.27349
2021-05-09 14:14:01+00:00,196.0,12.18,197.0,13.48,13.84,47.59359,-54.27349
2021-05-09 14:24:01+00:00,193.0,11.76,191.0,13.78,13.84,47.59359,-54.27349
2021-05-09 14:34:01+00:00,200.0,14.77,197.0,17.1,13.84,47.59359,-54.27349
2021-05-09 14:44:01+00:00,195.0,12.59,197.0,14.47,13.84,47.59359,-54.27349
2021-05-09 14:54:01+00:00,194.0,13.44,197.0,15.44,13.84,47.59359,-54.27349
2021-05-09 15:04:01+00:00,196.0,13.49,198.0,15.31,13.84,47.59359,-54.27349
2021-05-09 15:14:01+00:00,194.0,12.85,203.0,15.45,13.84,47.59359,-54.27349
2021-05-09 15:24:01+00:00,195.0,13.38,191.0,15.42,13.84,47.59359,-54.27349
2021-05-09 15:34:01+00:00,196.0,14.4,197.0,16.5,13.84,47.59359,-54.27349
2021-05-09 15:44:01+00:00,193.0,13.52,200.0,15.28,13.84,47.59359,-54.27349
2021-05-09 15:54:01+00:00,199.0,17.78,201.0,21.41,13.84,47.59359,-54.27349
2021-05-09 16:04:01+00:00,196.0,16.76,200.0,21.92,13.84,47.59359,-54.27349
2021-05-09 16:14:01+00:00,199.0,14.07,207.0,17.83,13.92,47.59359,-54.27349
2021-05-09 16:24:01+00:00,205.0,13.22,206.0,17.06,13.92,47.59359,-54.27349
2021-05-09 16:34:01+00:00,203.0,14.93,208.0,17.14,13.92,47.59359,-54.27349
2021-05-09 16:44:01+00:00,199.0,15.47,195.0,18.6,13.92,47.59359,-54.27349
2021-05-09 16:54:01+00:00,197.0,17.17,203.0,20.15,13.92,47.59359,-54.27349
2021-05-09 17:04:01+00:00,204.0,16.18,200.0,19.01,13.92,47.59359,-54.27349
2021-05-09 17:14:01+00:00,206.0,14.02,200.0,17.98,13.84,47.59359,-54.27349
2021-05-09 17:24:01+00:00,207.0,15.83,205.0,18.22,13.84,47.59359,-54.27349
2021-05-09 17:34:01+00:00,203.0,13.67,206.0,15.88,13.84,47.59359,-54.27349
2021-05-09 17:44:01+00:00,200.0,15.05,200.0,17.73,13.84,47.59359,-54.27349
2021-05-09 17:54:01+00:00,204.0,15.09,205.0,18.75,13.84,47.59359,-54.27349
2021-05-09 18:04:01+00:00,201.0,14.92,198.0,17.56,13.84,47.59359,-54.27349
2021-05-09 18:14:01+00:00,199.0,14.69,206.0,17.19,13.76,47.59359,-54.27349
2021-05-09 18:24:01+00:00,203.0,14.71,207.0,17.19,13.76,47.59359,-54.27349
2021-05-09 18:34:01+00:00,201.0,16.24,194.0,19.77,13.76,47.59359,-54.27349
2021-05-09 18:44:01+00:00,198.0,15.96,203.0,19.38,13.76,47.59359,-54.27349
2021-05-09 18:54:01+00:00,198.0,15.56,200.0,18.74,13.76,47.59359,-54.27349
2021-05-09 19:04:01+00:00,200.0,15.88,207.0,18.08,13.76,47.59359,-54.27349
2021-05-09 19:14:01+00:00,200.0,16.77,204.0,18.2,13.68,47.59359,-54.27349
2021-05-09 19:24:01+00:00,201.0,15.09,199.0,17.23,13.68,47.59359,-54.27349
2021-05-09 19:34:01+00:00,202.0,14.45,203.0,17.32,13.68,47.59359,-54.27349
2021-05-09 19:44:01+00:00,202.0,14.28,196.0,16.51,13.68,47.59359,-54.27349
2021-05-09 19:54:01+00:00,202.0,13.97,201.0,16.12,13.68,47.59359,-54.27349
2021-05-09 20:04:01+00:00,207.0,13.48,208.0,16.31,13.68,47.59359,-54.27349
2021-05-09 20:14:01+00:00,205.0,15.93,211.0,17.69,13.84,47.59359,-54.27349
2021-05-09 20:24:01+00:00,204.0,14.77,207.0,18.07,13.84,47.59359,-54.27349
2021-05-09 20:34:01+00:00,204.0,14.8,203.0,17.41,13.84,47.59359,-54.27349
2021-05-09 20:44:01+00:00,209.0,14.6,212.0,17.88,13.84,47.59359,-54.27349
2021-05-09 20:54:01+00:00,212.0,14.43,211.0,16.6,13.84,47.59359,-54.27349
2021-05-09 21:04:01+00:00,212.0,13.93,211.0,16.04,13.84,47.59359,-54.27349
2021-05-09 21:14:01+00:00,209.0,15.29,206.0,16.94,13.68,47.59359,-54.27349
2021-05-09 21:24:01+00:00,208.0,15.35,206.0,18.77,13.68,47.59359,-54.27349
2021-05-09 21:34:01+00:00,210.0,14.1,205.0,16.99,13.68,47.59359,-54.27349
2021-05-09 21:44:01+00:00,209.0,13.51,207.0,16.02,13.68,47.59359,-54.27349
2021-05-09 21:54:01+00:00,211.0,13.95,211.0,16.95,13.68,47.59359,-54.27349
2021-05-09 22:04:01+00:00,214.0,14.57,212.0,16.49,13.68,47.59359,-54.27349
2021-05-09 22:14:01+00:00,215.0,12.62,214.0,15.43,13.21,47.59359,-54.27349
2021-05-09 22:24:01+00:00,217.0,11.9,213.0,13.5,13.21,47.59359,-54.27349
2021-05-09 22:34:01+00:00,222.0,13.0,221.0,14.88,13.21,47.59359,-54.27349
2021-05-09 22:44:01+00:00,223.0,12.49,227.0,14.36,13.21,47.59359,-54.27349
2021-05-09 22:54:01+00:00,219.0,11.41,221.0,12.92,13.21,47.59359,-54.27349
2021-05-09 23:04:01+00:00,220.0,12.42,214.0,14.27,13.21,47.59359,-54.27349
2021-05-09 23:14:01+00:00,215.0,12.31,216.0,13.55,12.73,47.59359,-54.27349
2021-05-09 23:24:01+00:00,218.0,10.69,219.0,12.07,12.73,47.59359,-54.27349
2021-05-09 23:34:01+00:00,219.0,9.89,218.0,11.65,12.73,47.59359,-54.27349
2021-05-09 23:44:01+00:00,217.0,10.65,217.0,12.24,12.73,47.59359,-54.27349
2021-05-09 23:54:01+00:00,219.0,8.82,217.0,10.09,12.73,47.59359,-54.27349
